Weather in Knoxville

United States     35°57′38″N   83°55′15″W
temp.,
°C
wind,
m/s
gust,
m/s
humid.,
%
clouds,
%
prec.,
mm/h
press.,
hPa
HPBL,
m
17 may, mon
mon1723:00+16ene2579100 0.0 1022155
02:00+13ne228697 0.0 102243
05:00+12ene1189100 0.0 102215
08:00+14se0183100 0.0 102393
11:00+20sw2462100 0.0 1023530
14:00+25sw354398 0.0 10211761
17:00+24w2448100 0.0 10201005
20:00+21e0067100 0.0 102111
18 may, tue
tue1823:00+19e117399 0.0 102233
02:00+17e1177100 0.0 102217
05:00+15e2282100 0.0 102236
08:00+16e1279100 0.0 1024128
11:00+20ene1163100 0.0 1024499
14:00+21nw2262100 0.0 1024651
17:00+18nw2289100 1.6 102444
20:00+17ene269594 2.2 1023160
19 may, wed
wed1923:00+15ne239690 0.0 102475
02:00+15ene119598 0.0 102329
05:00+15ne119498 0.0 102415
08:00+16s009185 0.0 102674
11:00+23ssw126168 0.0 1026689
14:00+28sse02479 0.1 10251659
17:00+24e236697 0.0 1023115
20:00+22e127097 0.0 102329
20 may, thu
thu2023:00+20sw1178100 0.1 102511
02:00+19se117688 0.1 102511
05:00+18ese117771 0.0 102515
08:00+18ese12785 0.0 1028159
11:00+24s015647 0.0 1028861
14:00+28ssw124370 0.0 10271821
17:00+28n13376 0.0 10242066
20:00+24e116488 0.0 102513
21 may, fri
fri2123:00+22sw276621 0.0 1026265
02:00+18w11825 0.0 102728
05:00+17e11905 0.0 102811
08:00+18e118211 0.0 1030143
11:00+25se125625 0.0 1030792
14:00+29e12425 0.0 10281901
17:00+29ene22369 0.0 10262021
20:00+24ese11585 0.0 102611